Lid_Strength_Index
7 6 7 6 6 6 5 5 5 5 5 5 4 4 3 3 3 7 7 7 8 10 9 7 7 9 9 10 11 10 10 11 12 14 14 15 15 14 14 14 14 14 15 15 16 17 16 8 8 11 9 9 8 8
8 8 7 7 7 7 7 7 7 6 6 5 4 4 4 3 3 5 8 6 6 8 8 7 6 5 5 6 8 9 10 11 11 13 13 14 14 14 15 15 13 14 12 14 13 13 9 9 9 8 7 8 8 8
8 8 8 8 8 8 8 8 8 8 7 5 5 4 4 3 3 4 7 8 8 10 9 9 8 6 6 5 5 9 10 9 11 11 12 13 14 13 14 14 14 12 11 12 12 11 10 8 7 8 8 8 8 8
9 9 9 9 9 9 9 8 8 8 8 7 6 6 5 4 4 3 6 7 6 9 12 10 6 7 6 6 6 6 9 10 11 11 12 13 13 12 13 12 12 10 11 12 12 10 10 9 8 8 7 7 7 8
9 9 9 9 9 9 9 9 9 9 8 8 7 7 7 6 5 5 5 5 6 9 12 11 8 7 7 7 6 7 8 10 11 11 12 12 12 12 12 12 12 10 11 12 11 8 10 9 7 7 7 7 7 8
8 8 9 9 9 9 9 9 9 9 9 9 8 8 8 7 6 6 8 9 8 9 11 13 9 8 8 7 7 8 9 11 11 11 12 11 11 11 14 14 9 9 9 8 9 8 9 8 7 6 7 7 7 8
8 8 8 8 8 8 8 8 8 8 9 9 9 8 8 7 7 8 9 10 8 9 10 13 12 8 7 8 9 10 11 11 11 11 12 11 11 10 13 13 8 8 8 8 8 8 9 8 8 7 7 6 6 7
6 7 7 7 7 8 8 8 8 8 8 8 8 8 8 8 7 8 7 7 7 9 9 11 12 9 9 10 11 10 12 12 12 12 12 12 12 12 14 10 8 7 8 8 7 7 7 7 7 7 7 7 6 6
3 4 4 5 6 6 7 7 8 8 8 8 8 8 8 9 10 11 7 8 8 8 10 10 13 12 9 11 11 10 11 12 11 13 13 12 13 13 11 10 9 9 9 8 7 6 6 7 7 7 7 7 7 6
2 2 2 2 3 3 4 5 7 7 7 8 9 9 12 9 7 8 12 14 12 10 10 12 11 12 10 12 12 12 11 12 13 11 12 13 13 10 9 9 8 7 7 6 7 7 7 7 7 6 6 6 6 6
2 2 2 2 2 2 3 4 5 6 7 9 10 10 9 6 10 11 13 14 13 14 13 12 11 11 10 12 12 11 13 12 14 12 12 14 13 10 8 8 7 6 6 6 6 5 5 6 6 6 6 5 5 5
2 2 2 2 2 2 2 3 3 6 7 8 10 8 8 10 11 13 14 14 14 16 14 14 13 13 11 10 11 11 12 12 14 12 13 15 12 9 8 6 6 6 6 6 5 6 6 6 6 6 5 5 5 5
1 2 2 2 2 2 2 2 2 4 4 7 9 10 10 11 15 15 17 15 14 13 13 13 13 12 12 11 11 10 11 12 11 14 14 13 10 8 8 7 7 6 6 6 6 6 5 4 3 4 4 3 3 4
1 1 1 2 2 2 2 2 2 3 5 9 11 14 13 14 14 15 14 13 12 11 11 10 12 12 11 12 11 12 11 12 14 16 14 11 9 9 8 7 8 7 7 7 7 6 5 4 4 4 3 3 4 4
1 1 1 1 1 1 2 2 2 3 6 9 9 14 13 11 12 11 11 11 11 10 11 11 10 10 11 12 11 12 13 14 14 15 13 10 9 8 8 8 8 8 8 8 7 7 6 5 4 4 3 3 3 3
1 1 1 1 1 1 1 2 3 4 6 8 10 11 11 11 11 11 11 11 10 10 10 9 10 12 11 11 12 14 14 14 13 12 10 9 9 8 8 8 8 8 8 8 7 6 6 5 4 4 3 3 4 3
1 3 1 1 1 1 1 4 4 8 9 10 11 8 9 9 10 10 9 9 9 9 12 12 13 13 10 12 13 12 13 12 11 10 10 8 8 8 8 8 8 8 7 8 7 6 6 5 5 4 6 5 5 4
3 2 0 1 1 2 3 4 7 8 11 9 10 9 8 8 9 8 8 8 9 10 9 10 9 12 13 13 12 10 10 10 10 9 9 8 8 8 8 8 7 8 7 7 7 6 6 6 6 6 5 6 7 7
2 1 1 1 2 4 6 6 6 10 10 10 9 9 9 9 8 8 8 9 9 8 11 10 10 12 12 11 11 10 10 10 10 10 9 8 8 8 8 8 7 7 7 7 6 6 5 5 6 7 7 6 7 7
1 1 0 1 2 5 7 7 5 8 10 8 8 9 10 10 10 10 10 11 11 10 12 13 11 10 10 9 9 9 9 10 10 10 9 8 7 8 7 7 7 7 7 6 6 7 5 4 3 5 5 6 7 8
2 2 1 2 3 4 5 6 8 8 8 9 9 10 11 11 11 11 12 12 14 14 13 11 10 9 8 9 9 9 9 9 9 8 7 8 7 7 7 7 7 7 6 6 7 6 5 4 4 3 3 3 4 5
3 1 3 3 6 6 7 6 7 6 8 8 8 10 13 13 12 12 11 13 13 11 10 11 10 9 8 9 8 9 8 7 7 7 7 8 8 7 7 7 6 6 6 6 6 5 4 3 3 3 3 3 4 3
2 3 5 5 8 8 9 6 8 8 10 10 8 10 11 12 12 10 12 11 11 9 9 9 9 8 8 8 9 8 8 8 7 7 7 7 7 6 7 6 5 6 7 6 5 4 3 6 4 3 3 3 3 3
3 5 7 8 8 10 7 9 7 9 10 11 11 12 12 11 10 11 13 12 10 10 10 9 9 10 10 9 9 7 7 6 6 7 7 6 7 6 6 5 5 5 6 5 4 3 3 3 5 3 3 3 4 4
9 9 8 10 7 9 10 9 10 10 12 12 12 12 12 10 12 12 13 11 11 10 10 10 10 9 9 9 8 7 6 6 7 7 6 6 6 6 6 5 5 5 4 3 4 4 3 3 3 4 4 4 4 4
12 9 11 9 9 11 11 12 12 12 12 12 12 11 9 10 12 11 10 9 6 7 8 9 9 8 8 7 7 6 6 6 6 6 6 5 6 6 6 5 5 4 2 2 3 3 3 3 4 4 4 5 8 4
12 11 9 9 9 9 9 10 10 10 10 11 10 9 11 12 11 9 6 5 5 6 6 5 5 6 6 6 6 6 5 5 5 5 5 5 5 5 5 4 4 3 2 2 2 2 3 3 3 4 4 4 4 4
8 8 10 10 10 10 10 9 9 10 9 9 9 10 11 10 10 6 5 4 5 5 5 6 7 7 8 7 6 6 5 5 5 5 5 5 5 4 3 3 2 8 2 1 1 2 2 2 2 3 3 3 3 3
9 8 7 9 9 8 9 9 10 9 8 7 9 10 9 6 5 6 5 5 5 8 9 7 6 6 5 4 4 5 5 5 5 5 6 6 5 4 3 3 3 2 2 2 8 5 3 2 2 2 2 3 4 4
9 8 9 8 9 10 8 7 9 7 7 7 6 7 8 7 6 5 7 7 8 7 5 6 5 4 4 4 4 4 5 5 5 4 5 5 4 3 3 2 2 2 2 2 2 2 7 4 5 2 3 3 3 4
6 8 9 8 9 8 7 6 6 7 8 8 8 8 8 8 7 6 6 6 6 5 6 5 5 4 4 4 4 5 5 3 3 2 2 3 2 2 2 2 2 2 2 2 2 2 2 3 3 3 3 3 3 4
8 9 9 10 10 7 7 8 7 9 9 9 10 10 9 9 9 6 5 4 4 5 7 6 5 4 3 3 3 3 9 3 2 2 2 3 2 2 2 2 2 2 2 2 2 2 2 3 3 3 3 2 2 3
9 9 9 9 10 9 8 8 9 10 9 9 10 9 9 9 8 6 3 3 3 3 4 4 3 2 2 2 3 3 7 2 4 9 8 7 7 5 3 2 2 2 2 3 2 2 2 2 2 2 3 2 2 2